TimeCST,TemperatureF,Dew PointF,Humidity,Sea Level PressureIn,VisibilityMPH,Wind Direction,Wind SpeedMPH,Gust SpeedMPH,PrecipitationIn,Events,Conditions,WindDirDegrees,DateUTC
12:38 AM,35.6,33.8,93,29.96,7.0,West,18.4,25.3,0.00,,Overcast,270,2012-11-12 06:38:00
12:52 AM,35.1,33.1,92,29.98,7.0,West,20.7,26.5,0.00,Rain,Light Rain,270,2012-11-12 06:52:00
1:18 AM,35.6,33.8,93,29.97,6.0,West,17.3,23.0,0.00,,Overcast,270,2012-11-12 07:18:00
1:52 AM,34.0,30.9,89,30.01,10.0,West,19.6,-,0.00,,Overcast,270,2012-11-12 07:52:00
2:42 AM,32.0,28.4,87,30.01,10.0,West,18.4,29.9,N/A,,Overcast,270,2012-11-12 08:42:00
2:52 AM,32.0,28.0,85,30.05,10.0,West,17.3,-,N/A,,Overcast,270,2012-11-12 08:52:00
3:52 AM,30.9,27.0,85,30.04,10.0,West,15.0,-,N/A,,Overcast,270,2012-11-12 09:52:00
4:52 AM,30.0,25.0,82,30.07,10.0,West,18.4,-,N/A,,Overcast,260,2012-11-12 10:52:00
6:40 AM,26.6,21.2,80,30.09,10.0,WSW,19.6,-,N/A,,Scattered Clouds,250,2012-11-12 12:40:00
6:52 AM,26.1,19.9,78,30.11,10.0,West,19.6,-,N/A,,Partly Cloudy,260,2012-11-12 12:52:00
7:52 AM,27.0,21.0,78,30.13,10.0,West,18.4,-,N/A,,Partly Cloudy,260,2012-11-12 13:52:00
8:48 AM,26.6,19.4,74,30.13,10.0,WSW,21.9,27.6,N/A,,Mostly Cloudy,250,2012-11-12 14:48:00
8:52 AM,27.0,19.9,75,30.15,10.0,West,21.9,28.8,N/A,,Mostly Cloudy,260,2012-11-12 14:52:00
9:52 AM,28.9,19.9,69,30.16,10.0,West,18.4,26.5,N/A,,Mostly Cloudy,260,2012-11-12 15:52:00
9:59 AM,28.4,19.4,69,30.14,10.0,West,16.1,26.5,N/A,,Partly Cloudy,260,2012-11-12 15:59:00
10:52 AM,30.9,21.0,67,30.17,10.0,West,19.6,26.5,N/A,,Partly Cloudy,270,2012-11-12 16:52:00
11:50 AM,32.0,21.2,64,30.14,10.0,WSW,20.7,27.6,N/A,,Mostly Cloudy,250,2012-11-12 17:50:00
11:52 AM,32.0,21.9,66,30.16,10.0,West,17.3,27.6,N/A,,Mostly Cloudy,260,2012-11-12 17:52:00
12:12 PM,32.0,21.2,64,30.14,10.0,WSW,20.7,27.6,N/A,,Scattered Clouds,250,2012-11-12 18:12:00
12:52 PM,33.1,21.0,61,30.16,10.0,WSW,23.0,31.1,N/A,,Mostly Cloudy,250,2012-11-12 18:52:00
1:52 PM,33.1,21.0,61,30.17,10.0,WSW,18.4,28.8,N/A,,Mostly Cloudy,250,2012-11-12 19:52:00
2:52 PM,33.1,21.0,61,30.19,10.0,WSW,20.7,28.8,N/A,,Overcast,250,2012-11-12 20:52:00
3:52 PM,33.1,21.9,64,30.21,10.0,WSW,23.0,-,N/A,,Overcast,250,2012-11-12 21:52:00
4:52 PM,33.1,23.0,66,30.24,10.0,West,18.4,25.3,N/A,,Overcast,260,2012-11-12 22:52:00
5:52 PM,32.0,24.1,73,30.27,10.0,West,17.3,-,N/A,,Overcast,270,2012-11-12 23:52:00
6:52 PM,32.0,25.0,75,30.29,10.0,West,12.7,-,N/A,,Overcast,270,2012-11-13 00:52:00
7:52 PM,32.0,24.1,73,30.30,10.0,West,12.7,-,N/A,,Overcast,260,2012-11-13 01:52:00
8:52 PM,33.1,24.1,70,30.31,10.0,WSW,13.8,-,N/A,,Overcast,250,2012-11-13 02:52:00
9:52 PM,32.0,24.1,73,30.33,10.0,West,15.0,-,0.00,,Overcast,270,2012-11-13 03:52:00
10:52 PM,30.0,24.1,79,30.36,10.0,WNW,16.1,-,0.00,,Overcast,300,2012-11-13 04:52:00
11:52 PM,28.0,21.9,78,30.38,10.0,WNW,11.5,-,N/A,,Clear,300,2012-11-13 05:52:00